Paso Robles, CA

6:45 AM PST on November 19, 2017 (GMT -0800)
Paso Robles Municipal

Weather History for KPRB - April, 2012

Change the Weather History Date:

Sunday, April 29, 2012

  Actual Average Record
Temperature  
Mean Temperature 68 °F 60 °F  
Max Temperature 89 °F 76 °F 97 °F (1981)
Min Temperature 46 °F 43 °F 27 °F (1970)
Degree Days  
Heating Degree Days 0 6  
Month to date heating degree days 218 247  
Since 1 July heating degree days 2650 2706  
Cooling Degree Days 3 1  
Month to date cooling degree days 23 3  
Year to date cooling degree days 23 3  
Growing Degree Days 17 (Base 50)    
Moisture  
Dew Point 47 °F    
Average Humidity 57    
Maximum Humidity 93    
Minimum Humidity 21    
Precipitation  
Precipitation 0.00 in 0.02 in 0.14 in (1951)
Month to date precipitation 1.92 0.67  
Year to date precipitation 5.87 8.50  
Since 1 July precipitation 8.68  
Sea Level Pressure  
Sea Level Pressure 29.87 in    
Wind  
Wind Speed 4 mph (NW)    
Max Wind Speed 13 mph    
Max Gust Speed -    
Visibility 10 miles    
Events      
T = Trace of Precipitation, MM = Missing Value Source: NWS Daily Summary

Daily Weather History Graph

Daily Weather History Graph

Search for Another Location

Airport or City:

Trip Planner

Search our weather history database for the weather conditions in past years. The results will help you decide how hot, cold, wet, or windy it might be!

Date:

Astronomy

Apr. 29, 2012 Rise Set
Actual Time 6:12 AM PDT 7:48 PM PDT
Civil Twilight 5:44 AM PDT 8:15 PM PDT
Nautical Twilight 5:12 AM PDT 8:48 PM PDT
Astronomical Twilight 4:37 AM PDT 9:22 PM PDT
Moon 1:00 PM PDT (4/29) 1:50 AM PDT (4/29)
Length of Visible Light 14h 30m
Length of Day
13h 35m
First Quarter, 54% of the Moon is Illuminated
Apr 29
First Quarter
May 5
Full
May 12
Last Quarter
May 20
New
May 28
First Quarter

Hourly Weather History & Observations

Time (PDT) Temp. Dew Point Humidity Pressure Visibility Wind Dir Wind Speed Gust Speed Precip Events Conditions
12:53 AM 53.6 °F 46.4 °F 77% 29.89 in 10.0 mi NNW 8.1 mph - N/A   Clear
1:53 AM 52.0 °F 46.9 °F 83% 29.87 in 10.0 mi NW 6.9 mph - N/A   Clear
2:53 AM 52.0 °F 46.9 °F 83% 29.87 in 10.0 mi NNW 10.4 mph - N/A   Clear
3:53 AM 51.1 °F 46.9 °F 86% 29.87 in 10.0 mi NW 10.4 mph - N/A   Clear
4:53 AM 48.0 °F 45.0 °F 89% 29.87 in 10.0 mi Calm Calm - N/A   Clear
5:53 AM 46.9 °F 44.1 °F 90% 29.87 in 10.0 mi Calm Calm - N/A   Clear
6:53 AM 46.9 °F 44.1 °F 90% 29.89 in 10.0 mi Calm Calm - N/A   Clear
7:53 AM 52.0 °F 46.0 °F 80% 29.90 in 10.0 mi Calm Calm - N/A   Clear
8:53 AM 55.0 °F 46.9 °F 74% 29.91 in 10.0 mi Calm Calm - N/A   Clear
9:53 AM 61.0 °F 48.9 °F 64% 29.91 in 10.0 mi WNW 3.5 mph - N/A   Clear
10:53 AM 68.0 °F 48.0 °F 49% 29.89 in 10.0 mi Calm Calm - N/A   Clear
11:53 AM 75.0 °F 48.0 °F 38% 29.88 in 10.0 mi Variable 3.5 mph - N/A   Clear
12:53 PM 80.1 °F 48.0 °F 32% 29.85 in 10.0 mi Variable 4.6 mph - N/A   Clear
1:53 PM 84.0 °F 46.0 °F 26% 29.83 in 10.0 mi Calm Calm - N/A   Clear
2:53 PM 86.0 °F 42.1 °F 21% 29.81 in 10.0 mi Variable 3.5 mph - N/A   Clear
3:53 PM 88.0 °F 45.0 °F 22% 29.80 in 10.0 mi NNW 8.1 mph - N/A   Clear
4:53 PM 88.0 °F 42.1 °F 20% 29.81 in 10.0 mi NW 5.8 mph - N/A   Clear
5:53 PM 87.1 °F 45.0 °F 23% 29.80 in 10.0 mi Variable 4.6 mph - N/A   Clear
6:53 PM 80.6 °F 51.8 °F 37% 29.83 in 10.0 mi South 6.9 mph - N/A   Clear
7:53 PM 73.9 °F 48.9 °F 41% 29.84 in 10.0 mi West 9.2 mph - N/A   Clear
8:53 PM 69.1 °F 48.0 °F 47% 29.87 in 10.0 mi WNW 9.2 mph - N/A   Clear
9:53 PM 66.0 °F 48.0 °F 52% 29.91 in 10.0 mi WNW 9.2 mph - N/A   Clear
10:53 PM 62.1 °F 48.0 °F 60% 29.92 in 10.0 mi NW 6.9 mph - N/A   Clear
11:53 PM 59.0 °F 48.0 °F 67% 29.92 in 10.0 mi Calm Calm - N/A   Clear